ECMWFFLT2_250_spd_132.txt.gz
Wind_Speed
30 30 30 32 32 32 34 36 36 37 41 44 44 46 48 51 53 54 54 54 55 55 56 57 57 56 57 57 53 47 47 48 45 42 41 38 35 32 30 26 24 21 20 17 15 14 13 10 9 7 5 6 7 9 11 12 11 10 10 11 11 12 14
31 29 29 31 33 34 34 36 37 38 40 41 43 45 47 49 52 54 55 56 57 57 56 57 59 58 57 57 54 51 50 51 49 45 43 40 37 34 32 29 26 24 23 21 18 16 15 13 11 10 8 6 6 7 9 11 11 11 10 11 11 12 13
32 31 30 31 33 35 35 36 38 38 39 40 42 44 46 48 51 53 55 57 58 58 57 57 59 60 59 57 55 52 51 51 51 49 45 42 40 36 34 33 30 27 25 24 21 19 17 15 14 13 11 9 7 6 7 9 11 11 11 11 12 12 13
32 32 32 32 33 34 34 35 38 38 39 41 43 43 45 47 49 52 54 57 59 59 58 58 59 60 61 60 57 54 53 52 51 50 47 44 41 38 37 36 32 29 28 26 24 21 19 18 17 15 14 13 10 8 7 8 10 11 11 11 12 13 13
32 32 33 32 32 34 34 34 36 38 39 42 43 44 44 46 48 50 53 56 59 60 60 61 61 61 61 63 62 59 57 54 52 50 48 45 42 40 39 37 34 32 30 28 26 24 21 20 19 18 17 16 14 12 10 9 9 11 12 12 12 13 13
33 32 32 32 32 34 34 33 34 37 40 42 44 45 45 45 46 48 52 55 59 62 63 63 62 62 62 64 65 64 62 59 55 52 49 47 45 42 40 38 36 34 32 31 29 26 24 22 21 20 19 18 17 16 13 11 10 10 11 12 12 12 13
34 32 31 32 33 35 35 33 32 35 38 41 43 46 47 46 46 47 50 54 58 62 64 64 63 63 63 64 67 68 67 63 59 55 52 49 47 45 41 38 36 34 33 34 32 30 28 25 23 22 21 20 20 19 17 15 13 12 12 12 13 12 12
34 33 31 33 35 36 35 31 29 32 36 39 43 46 47 47 47 47 49 52 57 61 64 65 64 64 64 64 66 69 70 67 61 57 55 51 48 46 43 40 38 36 36 37 36 34 31 28 26 24 23 22 22 21 21 19 17 15 13 13 13 13 12
35 34 33 33 36 37 34 29 27 30 33 37 41 44 45 47 48 49 50 51 54 59 63 65 66 66 65 64 65 68 72 71 65 59 56 53 50 48 46 44 43 41 41 41 39 37 35 32 29 27 25 24 24 23 23 22 21 19 17 15 14 14 13
37 36 36 35 35 36 34 29 28 30 32 34 38 40 42 45 47 50 51 52 53 57 61 64 66 67 66 64 65 67 72 73 70 64 58 54 52 51 50 49 49 46 42 40 39 38 38 36 32 30 28 26 26 25 25 25 24 23 21 19 18 17 16
39 39 39 37 35 35 34 31 29 31 32 32 34 37 38 41 44 47 51 53 54 56 59 62 65 67 67 66 66 67 71 74 74 70 64 57 54 53 52 52 54 51 45 41 40 40 40 39 36 33 31 29 28 28 28 27 27 26 25 23 22 20 19
42 42 41 38 36 35 34 31 30 31 31 30 31 33 34 37 39 43 47 52 55 56 57 60 64 66 68 69 68 68 70 73 75 73 69 63 57 55 55 55 56 54 51 47 45 43 41 40 39 37 34 32 31 30 30 29 29 29 28 27 25 24 23
43 44 42 39 37 35 32 30 31 31 29 28 30 32 32 34 37 39 42 49 54 56 57 59 62 66 69 70 70 69 69 71 73 74 73 68 63 59 57 57 57 56 55 51 48 46 44 40 39 40 39 36 35 32 32 31 31 31 30 30 29 28 27
45 45 44 40 35 32 30 30 30 30 28 28 30 31 31 33 35 37 39 45 51 55 57 59 61 65 68 70 70 70 69 70 72 73 74 73 69 65 60 58 58 59 58 55 50 48 46 43 42 43 43 41 38 36 34 33 33 32 32 31 30 30 29
45 45 43 37 31 29 29 29 29 29 28 27 28 29 30 32 34 35 38 42 48 53 56 59 61 63 66 69 71 71 70 70 71 72 75 75 73 70 65 61 60 60 60 59 55 52 50 48 45 45 45 45 41 39 38 36 34 34 33 32 31 31 30
41 40 37 31 27 28 28 27 27 28 25 23 24 26 29 32 33 34 36 40 45 50 54 58 60 62 65 68 71 71 71 71 71 71 74 76 76 74 69 65 63 62 62 61 59 57 54 53 51 48 47 47 44 42 40 38 36 35 35 34 33 33 32
35 33 30 27 26 26 25 24 25 24 21 20 22 26 29 32 33 33 34 37 42 46 51 55 58 61 64 67 70 71 72 72 71 71 73 76 78 78 73 68 66 65 64 63 62 60 57 55 55 55 52 49 47 45 43 40 39 38 37 36 36 35 34
31 29 26 24 24 24 22 22 22 21 19 21 24 27 29 31 31 31 31 34 39 43 46 51 55 60 63 66 68 70 72 72 71 71 73 75 78 81 78 73 69 67 67 67 64 62 60 58 57 57 56 52 49 47 45 43 42 40 39 39 38 37 36
28 26 23 23 23 22 20 19 19 18 18 21 25 26 27 28 28 28 28 30 35 39 42 47 52 57 62 65 67 69 71 73 73 73 73 74 77 81 81 78 74 68 66 68 66 62 61 61 59 58 57 54 51 49 47 46 43 41 40 41 41 40 39
26 24 23 23 23 20 18 17 16 16 16 19 22 21 21 23 26 27 27 28 32 36 39 44 48 54 60 64 66 68 70 72 74 75 74 74 77 81 83 82 79 71 65 65 66 63 60 60 61 60 58 56 54 51 48 46 44 41 40 42 44 44 43
25 24 23 23 21 19 16 15 14 15 15 15 15 15 17 21 24 26 26 25 27 31 35 40 45 51 57 62 65 67 69 72 75 77 76 74 77 81 82 83 82 77 69 64 65 65 62 58 59 61 60 57 55 52 48 46 45 43 42 42 44 46 46
26 24 23 22 20 17 14 13 14 14 12 9 8 10 15 20 22 23 23 24 25 28 31 37 43 48 54 60 63 66 69 72 75 78 77 76 77 80 81 82 82 80 74 68 65 66 65 61 59 59 60 60 57 53 51 49 47 45 44 44 46 47 48
26 23 21 20 17 15 14 13 13 11 6 4 6 8 12 15 17 20 22 23 24 25 27 32 39 46 52 58 62 65 68 71 75 77 78 77 78 79 81 81 81 80 76 71 67 64 64 64 60 56 55 57 57 56 54 52 50 47 46 47 49 50 51
23 21 20 18 16 15 14 14 12 7 3 3 6 7 9 11 12 16 20 22 23 24 25 28 34 42 49 55 60 64 67 71 74 76 78 77 78 80 80 80 80 79 75 72 68 63 61 64 63 57 52 50 50 53 55 54 53 52 51 51 52 52 53
22 20 19 17 16 16 15 14 11 5 2 2 4 7 9 9 8 9 14 18 21 23 24 26 29 36 44 52 58 62 66 70 74 77 78 77 77 79 80 79 79 78 75 72 69 62 59 62 64 61 56 51 49 48 50 53 55 54 54 55 56 56 57
22 21 19 17 17 16 13 11 9 5 3 3 4 7 9 9 9 8 8 11 16 20 22 24 26 30 38 46 54 60 65 69 73 77 79 78 77 79 80 80 79 79 77 75 70 63 58 57 60 59 54 52 54 53 49 50 54 56 58 61 62 62 62
23 22 20 18 18 16 11 8 8 8 7 6 7 8 8 8 9 9 8 8 10 14 18 22 24 27 32 39 48 56 63 68 72 76 80 80 79 78 79 79 79 80 79 77 74 67 58 54 58 58 49 44 51 57 54 51 53 59 65 69 68 66 63
24 23 20 19 18 17 14 11 10 10 9 8 9 11 10 9 8 9 9 10 9 9 13 18 22 26 29 34 41 50 59 66 70 74 79 81 81 80 79 79 80 81 80 79 77 73 64 57 58 59 52 42 44 51 53 50 51 58 65 70 71 69 66
24 23 22 20 18 18 19 16 13 11 10 10 13 15 13 10 9 10 10 11 10 10 10 13 18 23 27 30 35 43 53 62 68 73 78 81 81 81 80 79 80 81 81 81 81 78 72 64 60 60 57 49 43 45 50 51 52 54 56 60 65 69 70
25 23 22 20 18 20 21 19 15 14 14 14 15 17 16 13 11 11 13 12 12 12 11 11 14 18 23 27 31 37 47 57 65 71 76 79 81 82 81 79 80 81 82 82 83 82 77 70 66 65 61 52 44 42 44 46 47 48 49 52 56 62 68
26 24 22 21 20 22 23 21 18 17 17 17 18 19 19 16 14 14 15 14 13 13 13 13 13 14 18 24 28 33 41 50 59 67 73 78 82 83 82 79 78 81 82 83 84 85 81 74 72 73 69 59 52 48 44 44 46 49 52 54 56 59 64
27 25 24 24 24 25 24 22 20 18 18 18 20 22 22 19 18 18 18 16 15 15 14 14 14 14 15 19 24 30 35 43 53 62 70 77 81 84 85 82 79 80 82 82 83 86 85 79 76 80 80 75 69 63 56 54 54 55 56 58 60 62 64
28 27 27 27 27 27 26 24 22 19 19 19 21 23 24 22 20 20 20 19 18 17 15 14 15 15 15 16 19 24 30 37 46 56 65 73 80 83 86 85 82 81 82 82 81 83 85 83 79 81 86 87 82 74 68 67 67 67 67 66 64 63 65
29 29 29 29 30 29 28 26 24 22 22 23 23 24 25 25 23 22 22 21 20 19 17 15 15 15 16 17 16 18 24 30 38 48 58 68 76 82 85 87 85 83 83 85 83 80 80 82 82 82 85 88 87 81 77 78 80 80 79 76 70 66 67
31 31 31 32 32 31 30 29 27 27 27 27 27 27 27 28 27 25 25 24 22 21 20 17 15 15 16 17 17 16 18 23 31 40 50 61 71 79 84 86 87 86 85 87 86 83 79 78 80 83 84 85 86 86 86 87 88 87 85 83 79 75 72
34 34 34 34 33 33 32 32 32 31 31 30 30 30 30 29 29 28 28 27 25 24 22 20 17 16 16 17 18 17 16 18 23 32 42 53 64 74 81 85 87 87 87 88 89 88 84 80 79 82 84 84 84 84 86 87 88 88 88 87 86 83 81
36 36 35 35 35 35 36 36 35 34 33 33 32 32 31 30 30 30 29 29 28 27 25 22 20 18 18 18 18 18 18 17 19 25 34 45 56 67 77 83 86 87 87 88 90 91 90 86 83 82 84 84 83 80 80 81 83 85 88 89 89 89 88

ECMWFFLT2_250_spd_135.txt.gz
Wind_Speed
28 29 29 29 31 32 34 34 35 37 38 39 40 41 42 44 46 47 48 50 50 50 50 50 51 51 51 51 52 51 49 47 45 44 41 36 32 32 31 28 25 22 19 16 13 12 11 10 9 7 3 0 2 3 4 6 8 10 11 12 12 13 14
28 29 29 29 30 30 31 33 34 35 36 36 38 39 41 44 45 46 48 50 51 52 52 51 51 52 52 51 52 52 52 51 49 48 46 40 34 34 33 31 29 26 22 19 16 14 12 11 11 10 7 4 1 1 3 4 7 9 11 11 12 13 14
29 29 29 30 31 30 31 32 33 33 34 35 36 37 39 42 44 46 48 50 52 53 54 53 52 52 52 52 52 52 53 53 52 51 50 45 38 36 36 34 32 29 25 21 19 17 14 13 13 12 10 7 5 2 1 3 5 8 10 11 12 13 13
30 30 30 31 32 32 32 31 32 33 33 34 35 36 37 39 42 44 47 50 53 55 55 54 53 52 52 53 52 53 53 52 52 52 53 50 43 38 38 37 34 31 27 24 22 19 17 15 14 14 13 11 8 6 3 2 4 6 9 11 12 13 13
31 31 30 31 33 33 32 31 31 32 33 34 35 36 37 37 39 42 45 49 53 55 56 55 54 53 53 53 53 54 54 53 52 52 52 51 45 39 39 39 36 32 29 26 23 21 19 18 17 17 16 14 11 9 7 5 3 5 8 10 11 13 14
33 32 32 33 35 35 33 32 31 32 34 35 36 36 37 37 38 40 44 47 51 55 56 56 56 55 54 54 53 54 56 56 55 52 51 51 47 42 41 41 39 36 33 29 27 25 23 21 20 18 17 17 15 12 10 8 6 5 6 9 11 12 13
35 35 35 36 37 37 36 34 32 32 34 35 36 37 38 38 38 39 42 45 49 52 55 56 57 57 56 55 54 55 58 60 59 56 52 51 49 46 45 45 44 42 38 34 33 31 30 27 23 21 20 19 18 16 13 11 10 8 6 7 10 12 13
38 37 38 39 39 39 39 37 34 33 33 35 36 37 38 39 39 40 41 44 46 49 53 57 57 58 58 57 56 57 58 61 63 61 56 52 51 50 49 48 47 44 40 38 37 37 36 32 27 24 22 21 21 20 17 15 13 11 9 8 8 10 12
39 39 40 40 41 40 40 38 35 33 34 35 35 36 37 38 40 41 42 43 44 47 52 56 58 58 59 60 59 59 59 61 63 64 61 57 54 53 53 51 49 45 42 41 40 39 38 35 31 28 25 23 22 23 22 19 17 15 13 11 9 9 10
38 39 40 40 41 42 40 38 35 34 34 35 35 34 34 35 38 41 43 44 45 47 49 54 57 58 59 61 62 61 60 61 64 65 64 61 59 57 56 55 52 48 46 43 42 41 39 36 33 32 31 28 25 25 25 24 22 19 17 15 13 11 10
36 35 36 38 41 41 39 37 36 34 34 34 34 34 32 32 35 39 42 45 47 47 49 52 55 58 59 62 64 63 62 62 64 66 65 63 62 61 60 58 55 51 49 46 43 42 41 38 35 34 36 34 30 27 26 26 25 23 21 19 17 15 12
35 31 32 36 39 38 37 37 37 35 35 34 34 34 33 33 35 37 41 45 47 48 49 51 54 57 59 61 64 65 65 63 65 68 67 65 64 64 62 61 58 55 52 49 46 43 42 40 37 37 38 36 32 29 28 27 27 26 25 22 20 18 16
37 34 33 34 35 36 37 37 37 36 36 34 33 34 34 34 36 37 40 43 46 48 50 51 53 56 58 61 64 66 67 66 65 68 70 68 67 66 64 62 61 58 55 53 49 45 44 42 40 38 38 37 35 33 30 29 28 27 27 26 24 22 21
41 39 38 37 37 37 38 38 37 37 36 35 34 34 33 34 36 36 37 39 42 46 48 51 53 55 57 60 63 66 68 68 67 68 70 72 71 69 66 64 63 61 59 57 54 50 47 45 41 39 39 39 39 37 34 31 29 28 28 28 27 26 25
44 42 41 40 39 39 39 39 37 36 36 35 34 34 34 35 36 36 35 36 39 42 45 49 52 55 57 59 62 65 68 70 70 68 70 73 74 73 70 67 65 64 62 61 59 55 51 48 45 43 42 41 41 40 37 34 32 30 29 28 28 28 28
45 44 42 40 38 38 39 38 35 35 36 35 34 34 34 35 36 35 35 36 37 38 40 45 50 54 57 59 61 64 67 70 72 70 70 74 76 76 74 71 68 66 64 63 62 59 56 53 49 47 46 43 42 42 40 37 35 33 31 29 28 29 28
43 42 41 38 36 35 35 34 33 33 34 34 33 33 34 35 35 35 35 36 36 37 38 42 47 52 57 59 61 63 66 69 72 73 72 73 77 78 77 74 70 68 66 65 64 62 60 57 52 49 49 46 44 43 42 40 36 34 32 31 30 29 29
40 39 37 35 34 33 31 29 29 31 32 32 32 32 33 34 34 33 34 35 36 37 38 40 44 49 54 58 60 62 65 68 72 74 73 73 76 79 80 77 74 71 68 67 66 64 61 58 54 52 51 49 48 47 45 42 39 36 35 34 32 31 30
38 36 34 32 32 32 28 25 26 28 30 31 31 31 32 33 32 32 33 34 35 36 37 38 42 47 51 55 58 61 64 67 70 73 74 73 74 78 82 81 79 75 72 69 68 66 63 60 59 57 54 53 52 51 48 44 42 40 38 37 35 34 33
35 33 30 29 30 30 26 23 25 29 30 29 29 29 30 31 31 31 32 33 33 33 34 37 40 45 49 52 55 59 62 65 68 72 74 75 74 77 82 84 83 80 76 71 69 68 66 64 64 63 59 56 56 55 51 48 46 43 40 38 37 36 35
34 31 28 28 28 27 23 23 27 29 28 28 27 26 26 28 30 30 30 31 32 32 33 34 38 42 46 48 51 56 60 64 67 70 74 76 77 78 81 84 86 85 81 75 71 69 67 66 67 67 64 61 58 58 56 53 51 48 45 43 41 40 39
34 30 27 27 26 23 23 26 28 28 27 27 25 23 23 26 27 27 27 28 29 30 31 32 35 39 42 45 48 53 57 62 66 69 72 76 78 79 81 83 85 86 85 81 75 71 69 67 68 68 68 65 61 59 58 56 54 51 48 46 44 43 41
35 29 26 26 24 23 26 28 27 27 27 24 21 21 22 23 21 20 21 22 24 26 28 29 31 35 38 41 45 50 55 59 64 68 71 75 78 80 81 82 83 85 86 84 81 76 71 68 68 69 69 68 65 61 59 57 56 54 51 49 47 45 43
34 29 25 25 25 26 28 28 27 27 24 20 19 20 18 15 12 12 14 16 19 21 24 25 28 31 35 38 42 46 51 56 62 66 69 73 76 79 81 82 83 83 84 84 84 82 77 72 70 69 69 69 68 66 62 60 59 57 55 52 50 47 44
32 27 24 26 27 28 29 28 26 25 21 18 18 16 11 7 6 7 9 11 14 17 19 21 24 28 31 34 38 42 48 53 58 63 67 71 74 78 81 82 82 82 82 82 84 85 82 78 74 71 70 69 69 68 65 63 61 59 55 53 51 49 46
30 26 25 27 29 30 29 27 25 22 19 19 17 13 9 7 6 6 6 7 9 11 14 17 20 23 27 30 33 38 44 49 54 60 65 69 72 76 79 82 82 82 82 82 83 85 85 83 79 75 72 71 70 69 66 63 61 59 57 55 54 52 49
29 27 27 29 30 30 28 26 24 22 20 19 16 12 10 9 8 6 5 3 4 6 9 12 16 19 23 27 29 33 39 45 50 56 61 66 70 73 77 81 82 82 82 82 83 85 86 85 82 79 75 73 71 70 68 65 62 60 59 58 57 54 52
28 28 29 30 30 29 28 27 25 23 21 19 17 13 11 9 8 6 5 3 2 2 4 6 10 14 19 23 26 30 34 40 46 52 58 63 67 72 75 79 81 83 83 82 83 84 86 86 84 80 77 74 72 71 70 67 63 60 58 58 57 56 54
27 27 29 30 30 31 30 28 26 24 22 20 17 15 13 10 8 7 7 5 3 3 3 4 5 8 13 19 23 27 30 35 41 47 54 60 65 70 74 77 80 82 83 83 83 84 85 86 85 82 77 74 71 69 68 66 64 62 58 55 54 54 56
27 28 30 31 32 31 30 27 26 24 21 19 17 15 13 11 9 9 9 8 6 6 6 6 6 6 7 11 17 23 27 30 35 42 49 55 61 67 71 75 79 82 83 83 83 83 85 86 85 83 78 73 68 66 66 66 64 64 61 55 51 51 54
29 30 32 32 33 32 31 29 27 24 21 19 17 15 14 12 11 11 11 10 9 9 9 9 8 7 6 6 10 16 22 27 32 37 43 50 57 63 69 73 77 80 83 84 83 83 84 84 84 83 80 75 68 64 65 66 65 64 63 58 53 50 51
31 32 33 34 35 35 33 30 27 23 20 19 17 16 16 15 14 14 14 13 12 12 12 11 10 9 8 7 6 9 16 23 29 34 38 44 52 59 65 71 75 78 81 84 84 83 82 82 83 82 80 78 72 65 64 65 64 63 64 62 60 58 56
32 33 35 36 36 35 32 28 25 23 21 19 18 18 18 16 16 15 15 14 14 14 14 14 12 11 10 9 8 9 11 16 23 30 35 40 46 53 60 67 72 76 80 82 84 84 82 81 82 81 79 79 75 67 62 62 60 60 62 64 66 68 68
34 35 36 36 35 34 32 29 27 25 23 21 21 21 20 19 18 17 16 16 16 16 16 16 15 14 13 12 11 11 12 13 17 24 31 36 41 47 54 62 68 74 78 81 83 85 83 81 82 81 79 80 75 66 62 62 59 58 61 64 67 72 75
35 35 36 35 34 34 33 31 30 27 26 25 25 24 22 22 21 20 19 19 19 19 19 18 18 17 16 15 14 14 14 14 14 17 24 32 37 41 47 55 62 69 75 79 82 85 84 82 82 82 80 81 78 70 65 65 61 60 64 67 69 71 73
36 36 35 35 35 34 34 33 32 30 30 29 28 26 26 25 25 24 23 22 22 21 21 20 20 20 18 18 17 17 17 17 16 14 17 24 31 37 41 47 55 63 71 77 81 84 84 83 83 83 82 83 83 77 72 71 67 64 66 69 71 71 70
37 37 37 37 37 36 35 35 34 33 33 32 30 30 29 28 28 27 26 26 25 24 23 23 22 22 21 21 20 20 19 19 19 17 16 17 23 30 36 41 48 55 65 73 79 83 84 83 83 84 83 84 87 85 81 78 74 70 69 71 73 73 71

ECMWFFLT2_250_spd_138.txt.gz
Wind_Speed
28 28 28 29 30 30 30 31 32 33 35 36 37 39 40 41 42 43 44 45 45 45 45 44 43 43 43 44 44 44 44 45 45 43 40 39 38 35 33 30 27 25 21 18 15 12 10 8 5 3 0 3 4 5 8 10 12 14 15 16 17 19 20
27 27 27 28 28 28 28 29 29 30 31 33 35 36 38 39 41 42 44 44 46 47 47 45 44 44 44 44 45 45 45 46 47 46 44 41 39 37 35 32 29 27 24 20 17 14 12 11 9 7 4 1 1 3 6 9 11 13 15 16 16 17 19
26 26 26 27 27 26 26 27 27 28 28 30 32 33 35 37 38 40 43 44 46 47 47 46 45 45 45 45 45 46 46 46 47 48 47 45 42 38 37 35 32 30 26 22 18 15 14 14 13 11 8 5 2 1 4 8 11 13 14 15 16 16 18
26 26 26 26 26 25 25 25 26 27 28 28 30 31 32 34 35 38 41 43 46 47 47 47 47 47 46 46 46 46 47 48 48 49 50 49 45 41 39 38 36 34 32 28 26 24 23 21 17 15 13 10 7 4 3 5 10 12 14 15 16 17 18
26 27 26 26 26 26 25 25 26 27 28 28 29 29 30 31 33 35 38 42 45 45 46 48 48 49 49 48 48 48 48 49 49 50 52 52 48 44 42 42 39 37 35 33 31 31 31 28 22 19 17 14 12 9 6 4 7 11 13 15 16 17 18
26 27 26 26 27 27 26 26 27 28 28 29 29 29 29 30 31 33 36 40 42 43 45 48 49 50 51 51 50 49 49 50 51 52 53 53 51 47 45 44 42 39 38 35 33 33 32 30 25 21 20 18 16 13 10 7 5 8 12 14 16 17 18
26 27 27 28 28 28 28 28 29 30 30 30 30 30 30 31 31 32 34 37 39 41 44 47 49 51 52 53 52 51 49 50 52 53 55 55 54 52 49 47 44 41 40 38 36 34 34 32 28 24 22 22 20 17 15 13 9 7 10 13 16 17 18
27 28 29 29 30 30 30 31 31 32 32 32 32 31 31 31 31 32 34 36 37 39 42 46 48 50 53 54 54 53 51 51 52 54 56 57 57 56 53 50 47 43 42 41 39 37 36 36 33 29 26 25 23 21 19 17 15 11 10 11 14 16 17
30 31 32 32 31 31 33 33 34 33 34 34 33 33 33 32 32 33 35 36 37 39 41 43 46 49 52 54 54 55 54 52 52 54 56 58 59 58 56 54 51 47 44 43 42 40 39 39 37 32 29 27 25 24 21 19 18 16 13 11 12 15 17
34 35 35 34 34 35 36 36 36 36 36 36 35 34 34 34 34 35 36 37 38 39 40 42 45 48 51 53 55 55 55 54 53 54 56 58 60 61 60 58 55 51 47 46 45 43 42 41 39 35 31 29 28 26 24 21 19 18 17 15 13 14 16
37 38 37 37 38 38 39 39 40 39 39 37 36 35 34 35 35 36 37 38 38 39 40 41 43 46 49 51 54 56 56 56 56 56 57 58 59 61 62 62 59 55 51 49 48 46 45 43 41 38 35 32 30 29 27 25 23 20 18 18 16 15 15
37 37 37 38 40 41 42 42 42 41 40 39 37 35 35 36 36 37 37 38 38 38 39 41 42 45 47 50 53 56 57 58 58 58 58 59 60 61 62 63 62 58 54 51 51 50 48 46 44 42 39 35 33 31 30 29 28 25 21 19 18 17 16
32 32 34 37 39 41 42 41 41 40 39 38 36 35 35 36 37 37 37 38 38 39 39 40 41 44 46 49 52 55 58 59 59 60 60 59 61 62 62 62 63 60 56 52 52 53 51 48 46 45 42 39 36 34 33 31 30 29 26 23 20 19 18
32 31 32 33 35 37 37 36 36 37 37 36 36 35 35 36 36 37 38 39 39 40 40 40 41 43 46 48 51 54 57 59 60 61 62 61 61 63 64 64 63 62 59 54 53 54 53 50 48 46 44 41 38 36 35 32 32 31 30 28 25 22 21
36 34 33 33 33 33 33 33 33 34 34 35 35 36 36 37 37 38 39 40 41 40 41 41 42 44 47 48 50 52 55 59 61 62 63 63 63 63 66 67 65 64 63 59 55 55 54 52 50 49 46 44 41 39 37 35 34 33 32 31 29 27 24
40 39 38 37 36 35 34 34 34 34 35 36 37 37 38 39 40 40 40 41 41 40 41 41 42 44 47 49 50 51 53 57 60 62 64 65 65 65 67 70 70 67 66 63 60 58 57 55 53 51 49 47 44 42 40 38 36 34 34 34 33 31 28
43 42 41 40 39 38 37 36 36 37 38 39 39 40 41 42 43 43 42 41 41 40 41 41 41 43 46 48 50 51 53 56 59 62 64 66 67 68 69 72 73 71 67 65 64 62 60 59 56 54 52 49 47 45 43 42 39 36 35 35 35 34 33
43 41 40 40 39 39 38 38 38 39 39 40 40 41 42 43 44 45 43 41 40 40 40 40 40 41 43 45 48 50 53 56 58 62 64 67 69 70 70 72 75 74 71 67 66 64 63 61 59 57 54 52 49 48 46 45 43 41 39 38 37 36 36
40 38 36 35 36 37 37 37 38 38 37 38 39 40 41 42 44 44 42 39 38 38 38 37 37 37 40 42 45 48 52 56 58 61 64 66 69 71 71 71 74 76 75 72 69 66 65 64 62 59 58 56 53 50 49 48 48 46 43 41 39 37 37
40 36 31 29 31 34 35 36 35 34 34 35 36 37 39 40 42 41 38 36 35 34 34 34 34 35 37 39 42 46 49 53 57 60 63 66 68 70 72 72 73 75 77 76 73 70 68 66 64 62 60 59 57 54 51 51 50 49 47 44 42 40 38
40 36 29 26 28 32 34 33 32 32 32 33 34 36 37 38 38 37 33 31 30 31 31 32 32 33 35 37 41 44 47 50 54 58 62 64 67 69 72 73 73 74 76 76 75 74 71 69 67 66 63 62 60 57 55 53 52 50 49 47 45 43 41
39 36 31 26 27 30 32 31 30 31 32 32 33 35 36 35 33 31 29 28 28 29 31 32 32 33 33 36 39 43 45 47 51 56 60 63 66 68 71 73 74 75 76 77 77 76 74 72 70 68 67 64 62 60 58 56 54 52 51 50 49 47 45
39 37 33 28 27 28 30 30 29 31 33 32 33 34 33 30 28 27 27 28 28 29 30 32 33 33 33 35 38 41 43 45 48 52 57 61 65 67 70 73 75 76 77 78 79 78 77 74 72 71 70 67 65 63 62 60 58 55 54 54 52 51 48
40 38 34 31 29 29 28 28 28 32 33 32 32 33 30 26 26 27 28 28 27 27 28 29 30 31 32 34 36 39 41 43 45 48 53 58 62 66 68 71 75 77 78 79 80 80 80 77 74 72 71 70 69 67 65 64 62 59 56 54 53 52 51
40 38 35 33 31 29 28 26 28 32 33 32 32 31 28 26 27 28 27 26 25 25 24 25 26 27 29 31 34 36 38 40 42 45 49 54 59 64 67 70 73 76 78 80 81 82 82 81 78 75 73 73 72 71 69 68 66 62 58 54 54 53 52
39 37 36 34 33 31 28 27 29 34 34 33 32 30 28 27 27 27 25 23 22 20 18 19 20 22 24 28 30 33 34 37 39 42 46 51 56 60 65 68 71 75 78 80 81 83 84 84 81 78 76 75 75 74 73 71 69 65 61 57 56 56 54
38 37 36 35 35 33 29 27 31 35 35 33 31 29 28 27 27 25 22 19 15 12 11 11 12 14 18 22 26 29 31 33 36 39 43 47 52 57 62 66 69 73 77 79 81 83 85 86 85 82 80 78 77 76 76 74 71 68 65 61 59 59 57
38 37 36 36 36 33 28 30 35 36 34 32 30 28 27 26 25 23 18 14 11 9 7 6 5 6 9 14 19 24 27 30 33 37 40 44 48 53 58 63 68 71 75 78 81 82 84 86 87 86 84 81 79 78 78 76 73 71 68 65 63 62 60
37 37 37 37 36 31 29 33 36 35 32 30 28 27 26 26 24 20 16 14 12 9 7 4 3 2 3 5 10 16 22 27 30 33 36 40 44 49 54 60 65 69 73 76 80 82 84 85 88 88 87 85 83 81 79 77 76 73 71 68 66 65 63
36 37 36 36 34 30 31 35 35 33 31 30 28 28 27 25 22 19 17 15 13 11 9 7 5 4 3 3 5 9 15 21 26 30 32 35 40 45 50 56 61 66 71 74 77 81 83 85 86 89 90 89 87 83 80 79 78 77 74 71 69 68 66
36 35 35 34 32 32 34 36 34 32 31 30 30 29 27 24 22 21 19 17 15 13 12 10 8 7 6 5 5 7 10 14 19 25 28 32 35 39 45 50 56 62 68 72 75 79 82 84 85 88 90 91 90 87 84 81 79 77 76 73 71 70 67
34 34 34 33 33 35 36 35 33 31 30 31 31 29 26 25 24 22 20 18 16 15 13 12 11 10 8 8 8 9 9 10 13 17 22 27 31 35 39 44 50 57 63 69 73 76 80 83 85 86 88 90 91 90 88 85 82 79 77 75 72 70 69
34 34 33 33 35 36 35 33 32 31 31 32 31 29 27 25 24 22 20 18 16 15 14 13 12 11 11 11 11 11 11 11 11 12 16 20 25 30 34 38 43 50 57 64 69 73 77 80 84 85 86 88 89 90 90 88 85 82 80 77 74 71 70
34 34 33 34 35 36 35 33 33 32 32 32 31 29 27 26 24 21 20 18 17 15 14 13 12 12 12 13 14 14 14 13 12 11 13 15 19 24 28 32 37 42 49 56 64 70 74 77 81 84 85 86 86 88 89 89 88 86 83 80 76 73 71
36 35 34 35 36 37 36 34 33 33 32 32 31 29 27 26 24 22 20 19 18 16 15 14 13 13 13 14 15 16 17 16 15 14 13 13 14 17 21 26 31 36 41 48 56 64 70 74 78 81 83 85 85 85 86 86 87 86 84 82 79 76 73
38 37 35 36 37 38 37 35 34 33 33 33 31 30 29 27 25 24 23 21 20 18 16 15 14 14 15 16 16 18 19 19 18 17 15 13 13 14 16 20 25 31 36 41 48 55 63 70 74 78 80 83 84 84 84 84 84 84 83 80 78 77 78
39 37 36 37 38 39 38 37 36 35 35 35 34 33 31 29 27 26 25 23 22 20 19 18 17 17 17 18 18 19 20 20 20 20 19 16 14 14 15 17 20 24 30 35 41 47 55 63 69 74 77 80 82 83 82 82 82 83 81 77 74 73 75

ECMWFFLT2_250_spd_141.txt.gz
Wind_Speed
30 30 31 31 31 31 32 32 33 33 35 36 38 40 42 44 44 44 43 43 43 43 42 41 40 40 39 39 39 40 41 41 40 40 39 38 38 37 36 33 28 26 25 22 19 17 15 12 10 7 6 7 8 10 13 15 17 19 20 22 23 24 24
29 30 31 30 30 30 31 31 32 32 33 34 35 37 40 42 43 44 44 43 43 43 42 41 41 41 41 40 40 40 41 42 42 41 40 40 39 39 39 35 31 29 27 24 22 22 20 16 13 12 10 9 10 11 13 15 17 19 20 22 23 24 25
29 30 30 30 30 30 30 31 31 31 32 32 33 34 37 39 41 43 44 43 43 43 42 42 43 43 43 42 41 41 41 42 42 42 42 41 41 41 40 38 34 32 30 28 26 25 22 18 14 12 12 11 12 13 15 17 18 19 20 22 23 24 25
28 29 30 30 30 30 30 30 30 30 30 30 31 32 34 36 38 41 42 43 43 42 43 44 45 45 45 44 42 41 41 42 43 43 43 43 43 43 42 40 37 35 34 31 30 29 25 19 16 13 11 11 11 12 15 18 19 20 21 22 24 24 25
28 29 30 30 30 29 29 30 30 30 30 30 29 30 31 34 36 38 40 41 42 43 44 45 45 46 46 45 44 43 42 42 43 44 45 44 45 45 44 42 39 38 37 35 33 31 27 22 19 16 14 13 12 12 13 17 19 21 22 23 25 25 25
28 29 30 30 30 29 29 29 29 29 30 30 29 29 30 31 33 36 38 40 40 42 44 45 45 46 46 46 45 45 44 43 43 44 45 46 46 47 46 44 42 40 39 38 35 34 30 27 25 21 18 16 14 13 13 15 18 21 23 24 25 26 26
28 29 30 30 30 30 30 29 29 30 30 30 30 30 30 30 31 33 36 38 39 41 43 44 45 46 46 46 47 47 46 46 45 45 45 47 48 48 49 47 44 43 42 40 38 36 33 30 29 26 23 20 18 16 15 16 17 20 22 24 25 27 27
28 29 30 30 30 30 30 30 30 30 30 30 31 31 31 31 32 33 34 36 37 39 41 43 44 46 47 47 48 49 49 48 46 46 46 47 48 49 50 50 48 45 44 42 40 39 37 33 31 30 27 24 21 19 17 17 17 19 21 23 25 27 28
28 30 31 31 31 31 31 31 31 32 31 31 31 32 33 33 33 33 34 35 36 37 38 40 42 44 46 47 48 50 50 50 49 48 47 47 48 50 51 52 51 49 46 45 43 41 40 37 35 34 31 27 25 23 20 18 18 19 20 22 24 26 27
30 31 31 32 32 32 32 32 33 33 33 33 33 34 34 34 34 34 34 35 35 35 36 38 40 42 44 46 48 50 51 52 51 50 49 48 48 50 51 52 53 53 50 47 45 44 42 40 38 37 35 32 29 27 24 22 20 19 20 21 23 25 26
32 32 33 34 34 34 34 34 34 35 35 35 35 36 36 35 35 36 35 35 35 35 35 37 39 41 42 44 47 49 51 53 53 52 52 50 50 50 52 53 55 56 54 51 48 46 45 43 40 39 38 36 33 31 28 26 23 22 21 22 24 25 26
35 34 35 35 35 36 36 36 36 37 37 37 37 38 38 37 37 37 37 36 35 35 35 36 38 40 41 43 45 48 50 52 54 54 54 53 52 52 53 54 56 58 58 55 51 49 47 46 44 42 40 38 36 34 32 29 27 25 23 23 23 25 26
36 37 38 38 38 38 38 38 37 38 38 39 39 39 39 38 38 38 37 36 35 35 35 36 37 38 40 42 44 46 48 51 53 55 56 55 55 54 54 55 57 58 59 58 54 51 49 49 47 46 43 41 39 37 35 32 30 28 25 24 23 24 26
37 39 40 40 40 40 39 39 39 39 40 39 38 38 38 38 38 39 38 37 36 36 37 37 37 38 39 40 42 45 47 50 52 55 57 57 57 56 55 55 57 59 60 60 57 54 52 51 50 49 46 44 43 40 37 35 34 31 29 26 25 24 25
36 37 38 38 39 39 39 39 40 40 40 39 38 37 37 37 37 38 38 38 37 37 38 38 37 38 39 40 41 43 45 48 51 53 56 58 58 58 56 56 57 59 61 61 60 57 55 53 52 51 49 47 45 43 40 38 37 35 32 30 28 27 26
38 36 36 36 35 36 38 39 40 40 39 38 38 37 36 35 35 35 36 36 36 37 38 38 38 39 40 40 41 42 44 47 50 52 55 57 59 59 59 58 58 59 61 63 63 61 59 56 54 53 52 50 48 46 44 41 39 38 36 34 32 30 28
41 39 37 35 34 35 36 36 36 37 37 37 36 35 34 33 32 32 32 33 34 35 37 38 38 39 40 40 40 42 44 46 48 51 53 56 58 60 61 60 60 60 62 64 65 65 63 60 58 56 55 52 50 49 48 45 42 41 40 38 36 34 31
44 43 41 38 37 37 37 36 35 36 36 36 35 35 34 33 33 33 33 33 33 35 36 37 39 40 41 41 41 41 42 44 47 50 52 55 58 60 62 63 62 61 62 64 66 68 67 65 62 60 59 56 53 52 51 49 46 44 43 42 40 38 36
47 46 44 42 42 41 40 39 39 38 38 37 37 37 37 37 37 37 36 36 37 37 38 39 40 41 43 43 43 42 43 44 46 49 52 54 57 60 61 63 64 63 63 64 67 69 70 69 66 64 64 61 57 54 53 53 51 48 46 45 44 42 40
49 47 45 44 44 43 42 43 43 41 41 41 41 41 42 41 41 41 41 40 40 40 40 41 42 43 45 45 44 44 44 45 46 49 51 54 57 59 61 63 65 66 65 65 67 69 71 71 69 67 66 66 62 59 56 55 54 52 49 48 46 45 43
52 49 46 44 42 43 43 44 42 42 42 42 43 44 45 45 44 44 43 43 42 42 42 42 42 43 45 45 44 44 45 45 47 48 51 53 56 59 61 63 65 67 67 67 67 68 70 72 71 69 67 67 66 63 59 57 56 55 53 51 49 47 46
54 51 47 44 42 42 42 40 38 38 40 42 43 44 44 44 44 44 44 43 43 42 41 39 39 41 42 42 42 43 44 45 46 48 50 53 55 58 61 63 64 67 68 69 69 69 70 72 72 71 69 68 67 65 63 61 59 58 56 54 51 49 48
56 53 49 45 42 41 39 36 33 33 37 40 42 42 42 42 42 43 43 42 41 40 38 36 36 38 38 38 40 41 42 43 44 46 49 51 54 57 59 62 64 66 68 70 70 70 71 72 73 72 71 70 68 66 65 64 62 61 60 57 54 52 50
57 56 51 46 44 42 39 34 30 30 34 38 39 39 39 40 41 42 41 40 39 37 35 34 34 35 35 36 37 39 40 41 42 44 47 49 52 55 58 61 63 65 68 70 72 72 72 73 75 74 73 73 71 67 66 66 64 62 62 61 58 55 54
58 57 52 48 45 43 39 34 29 29 32 36 37 37 38 40 40 39 38 37 36 34 32 32 32 32 32 33 34 36 37 39 40 42 44 46 49 52 55 58 62 65 67 69 71 73 73 74 76 77 75 75 74 71 68 68 67 64 63 63 61 58 57
60 57 53 50 47 44 41 36 30 29 31 34 36 37 38 39 38 35 34 35 34 31 30 30 29 28 28 29 31 32 35 37 39 40 41 43 46 49 52 55 59 63 66 68 70 73 75 75 76 79 79 77 77 75 71 69 69 68 65 65 63 61 59
60 57 54 51 50 46 41 35 31 29 30 33 35 37 38 37 35 32 32 32 31 29 28 26 25 24 25 26 28 30 32 35 36 38 39 41 42 45 48 52 55 59 64 67 69 72 75 76 77 79 81 80 79 79 76 72 70 70 68 67 66 64 61
59 57 54 53 51 45 39 36 34 32 30 31 33 34 35 34 32 30 30 30 29 27 25 23 22 22 22 23 24 27 29 32 33 35 37 38 40 42 44 48 51 55 60 64 68 70 73 77 78 79 82 83 82 81 79 76 73 72 71 69 68 67 64
58 56 55 54 50 44 40 39 37 33 29 28 29 31 32 32 29 28 28 29 28 25 23 21 20 19 19 19 20 22 25 27 29 31 33 35 37 39 41 44 47 51 55 61 66 69 72 75 78 80 81 83 84 83 81 79 77 75 73 72 71 70 68
55 54 54 54 49 44 41 40 37 32 28 25 27 30 31 29 27 28 29 29 27 24 22 21 20 18 16 15 15 16 18 20 23 25 28 30 32 34 37 40 43 47 51 56 62 67 70 73 77 79 81 82 84 86 84 82 80 78 76 74 73 72 71
52 53 54 52 47 43 42 40 36 32 27 25 27 29 29 27 28 29 30 29 27 25 24 22 20 18 15 14 13 13 13 13 15 18 21 24 26 29 32 35 38 42 47 51 56 62 67 71 74 77 80 81 83 85 87 86 84 82 80 77 75 74 73
50 51 52 50 45 43 42 40 36 32 27 25 28 30 28 28 30 31 31 30 28 26 25 23 20 18 16 15 14 13 11 10 10 11 13 15 19 23 27 30 34 37 42 46 51 56 62 68 71 74 78 80 82 84 85 87 87 86 84 81 79 76 75
48 49 49 47 44 43 42 40 36 32 27 26 29 30 29 30 31 32 31 30 29 27 25 22 20 18 17 16 15 13 11 9 8 7 8 9 11 15 20 24 29 33 36 41 46 50 56 63 68 72 75 78 81 83 84 85 87 87 86 85 82 79 77
46 47 46 44 42 42 41 40 36 32 29 28 30 30 30 31 32 33 33 31 29 27 25 23 21 19 18 18 17 15 13 11 9 8 7 7 8 10 13 17 22 27 31 35 40 45 50 56 63 68 72 75 79 82 84 85 86 87 88 87 85 82 79
44 44 43 41 41 41 42 40 37 32 30 30 30 30 31 32 34 34 34 31 29 27 26 24 22 20 19 19 18 16 15 13 12 11 10 10 10 10 11 12 15 19 24 29 33 38 44 50 56 63 68 73 76 79 82 84 86 87 88 88 87 85 82
44 43 41 39 40 42 42 40 35 31 31 31 31 31 33 34 35 36 34 32 30 29 27 25 23 22 20 19 17 16 15 14 13 14 13 13 13 13 12 12 12 13 17 21 27 32 37 43 49 56 63 69 73 76 80 83 85 87 88 89 89 87 85
43 41 39 40 42 43 41 37 33 32 32 32 31 32 34 36 37 37 35 32 31 30 28 26 24 22 21 19 17 16 15 14 14 15 15 15 15 15 15 14 14 13 14 16 20 25 30 36 42 48 55 63 69 74 77 80 83 86 87 88 89 89 87